Regional Weather Roundup
Issued by NWS Bismarck, ND

Home | Current Version | Previous Version | Text Only | Print | Product List | Glossary On
Versions: 1 2 3 4 5 6 7 8 9 10 11 12 13 14 15 16 17 18 19 20 21 22 23 24 25 26 27 28 29 30 31 32 33 34 35 36 37 38 39 40 41 42 43 44 45 46 47 48 49 50
000
ASUS43 KBIS 121120
RWRBIS

NWR BROADCAST TEXT
NATIONAL WEATHER SERVICE BISMARCK ND
600 AM CDT SAT JUL 12 2014

NOTE: "FAIR" INDICATES FEW OR NO CLOUDS BELOW 12,000 FEET WITH NO
SIGNIFICANT WEATHER AND/OR OBSTRUCTIONS TO VISIBILITY.


CITY           SKY/WX    TMP DP  RH WIND       PRES   REMARKS
WILLISTON      CLEAR     52  49  89 CALM      30.12R
MINOT          PTCLDY    55  52  89 SW7       30.08R
MINOT AFB      PTCLDY    54  54  99 W6        30.07R
BISMARCK       CLOUDY    64  56  75 N3        30.10R
DICKINSON      LGT RAIN  60  57  89 E3        30.13R
GARRISON         N/A     56  54  93 NW5       30.09S
HETTINGER ARPT TSTM      61  58  90 NW3       30.17R FOG
JAMESTOWN      MOCLDY    59  56  89 CALM      30.06R
CARRINGTON     FAIR      55  55 100 NW3       30.07S
CROSBY           N/A     52  52 100 SW5       30.10S
HARVEY         FAIR      50  50 100 SW5       30.08R FOG
HAZEN          PTSUNNY   57  57 100 CALM      30.10F
LINTON         PTSUNNY   61  61 100 CALM      30.09R
MANDAN         FAIR      59  57  94 W5        30.12R
RUGBY          FAIR      54  54 100 SW5       30.06R FOG
STANLEY          N/A     54  54 100 W3        30.11R
TIOGA          FAIR      46  46 100 W3        30.15R
WATFORD CITY   FAIR      50  50 100 CALM      30.11R
$$

CITY           SKY/WX    TMP DP  RH WIND       PRES   REMARKS
GRAND FORKS    MOCLDY    55  52  89 W5        30.02S
GRAND FORKS AF PTCLDY    55  55  99 NW6       30.03S
DEVILS LAKE    PTCLDY    57  54  88 CALM      30.05R
FARGO          CLEAR     59  56  89 CALM      30.02F
CANDO          FAIR      50  48  93 SW5       30.07R
CAVALIER       FAIR      55  52  88 W6        30.01S
GRAFTON        FAIR      55  55 100 W3        30.01F
GWINNER        SUNNY     63  63 100 N3        30.06R
LANGDON        FOG       45  45 100 SW6       30.04S VSB 3/4
ROLLA          FAIR      48  48 100 SW5       30.07R
WALHALLA         N/A     54  54 100 SW3         N/A
$$

CITY           SKY/WX    TMP DP  RH WIND       PRES   REMARKS
ABERDEEN       CLOUDY    64  58  80 N8        30.04R
MOBRIDGE       LGT RAIN  64  61  90 S3        30.10R
BUFFALO          N/A     60  58  92 NE10      30.09S
RAPID CITY     PTCLDY    62  57  83 N5        30.12R
GLASGOW        CLOUDY    59  56  89 CALM      30.13R
SIDNEY         MOCLDY    57  52  82 CALM      30.15R
WOLF POINT     PTCLDY    53  50  89 CALM      30.13R
GLENDIVE       MOCLDY    63  50  63 E3        30.14S
MILES CITY     MOCLDY    62  58  86 NE6       30.11R
BAKER          MOCLDY    59  58  96 SE6       30.13R
$$

CITY           SKY/WX    TMP DP  RH WIND       PRES   REMARKS
BILLINGS       CLOUDY    64  52  64 W8        30.19R
GREAT FALLS    CLEAR     52  50  93 SW6       30.18S
REGINA         PTCLDY    48  48 100 W7        30.07S
ESTEVAN        PTCLDY    52  50  93 SW3       30.10R FOG
$$




USA.gov is the U.S. government's official web portal to all federal, state and local government web resources and services.